User: anonymous   Login
Location: Unspecified
(0.0000°N, 0.0000°E)
Time: 13:45:09
(UTC+00:00)
Language:

N. Korean satellite - Orbit

View from above orbital plane
View from above orbital plane
View from above satellite
View from above satellite

Ground track
Ground track

The orbit data is extracted from the following two-line orbital elements,

1 39026U 12072A   14295.14014934  .00012236  00000-0  62529-3 0  1688
2 39026 097.3140 330.0882 0050555 349.1507 010.8631 15.15681311102597
Epoch (UTC): 22 October 2014 03:21:48
Eccentricity: 0.0050555
inclination: 97.3140°
perigee height: 484 km
apogee height: 554 km
right ascension of ascending node: 330.0882°
argument of perigee: 349.1507°
revolutions per day: 15.15681311
mean anomaly at epoch: 10.8631°
orbit number at epoch: 10259

The dashed part of the orbit path shows where the satellite is in the earth's shadow,  

DLR